Radiation Dose at Monitoring Post of Fukushima Daini Nuclear Power Station
Date,Time,MP-1(microSv/h),MP-2(microSv/h),MP-3(microSv/h),MP-4(microSv/h),MP-5(microSv/h),MP-6(microSv/h),MP-7(microSv/h),Wind Direction,Wind Velocity(m/s),Rain
2015/05/02,00:00,0.554,0.336,0.594,0.549,0.482,0.256,0.232,northwest,1.9,No
2015/05/02,00:10,0.551,0.339,0.590,0.546,0.479,0.257,0.232,north-northwest,1.1,No
2015/05/02,00:20,0.553,0.337,0.594,0.551,0.480,0.256,0.232,north-northeast,0.8,No
2015/05/02,00:30,0.550,0.338,0.591,0.547,0.482,0.256,0.231,-,CALM,No
2015/05/02,00:40,0.553,0.338,0.592,0.549,0.479,0.257,0.232,south-southwest,0.5,No
2015/05/02,00:50,0.552,0.337,0.591,0.549,0.483,0.256,0.232,south-southeast,0.8,No
2015/05/02,01:00,0.551,0.340,0.593,0.546,0.480,0.257,0.232,east,1.1,No
2015/05/02,01:10,0.554,0.338,0.593,0.549,0.483,0.258,0.232,north-northeast,1.0,No
2015/05/02,01:20,0.550,0.338,0.590,0.545,0.479,0.257,0.233,north,2.5,No
2015/05/02,01:30,0.554,0.339,0.593,0.549,0.482,0.258,0.232,north,2.6,No
2015/05/02,01:40,0.551,0.337,0.589,0.548,0.480,0.257,0.233,north-northeast,1.8,No
2015/05/02,01:50,0.554,0.339,0.592,0.547,0.480,0.257,0.233,north-northeast,2.2,No
2015/05/02,02:00,0.550,0.338,0.593,0.549,0.482,0.258,0.232,north,3.1,No
2015/05/02,02:10,0.551,0.339,0.590,0.547,0.479,0.257,0.232,north,3.7,No
2015/05/02,02:20,0.552,0.341,0.595,0.549,0.483,0.256,0.232,north,4.9,No
2015/05/02,02:30,0.550,0.338,0.589,0.546,0.480,0.257,0.233,north,4.6,No
2015/05/02,02:40,0.553,0.338,0.593,0.547,0.483,0.257,0.233,north,4.5,No
2015/05/02,02:50,0.549,0.337,0.593,0.551,0.480,0.257,0.230,north-northwest,3.8,No
2015/05/02,03:00,0.555,0.337,0.591,0.546,0.482,0.256,0.231,north,3.9,No
2015/05/02,03:10,0.550,0.339,0.594,0.548,0.481,0.257,0.231,north-northwest,4.4,No
2015/05/02,03:20,0.552,0.337,0.589,0.548,0.479,0.257,0.232,north-northwest,5.6,No
2015/05/02,03:30,0.554,0.337,0.594,0.546,0.483,0.257,0.232,north,6.9,No
2015/05/02,03:40,0.550,0.338,0.589,0.550,0.480,0.256,0.232,north,8.8,No
2015/05/02,03:50,0.556,0.335,0.591,0.546,0.482,0.258,0.231,north-northwest,10.3,No
2015/05/02,04:00,0.550,0.339,0.593,0.551,0.481,0.256,0.231,north-northwest,9.9,No
2015/05/02,04:10,0.552,0.337,0.589,0.549,0.481,0.256,0.231,north-northwest,9.9,No
2015/05/02,04:20,0.549,0.338,0.593,0.549,0.481,0.257,0.231,north-northwest,9.5,No
2015/05/02,04:30,0.554,0.337,0.587,0.550,0.480,0.257,0.232,north-northwest,10.1,No
2015/05/02,04:40,0.547,0.337,0.592,0.545,0.481,0.256,0.232,north-northwest,9.9,No
2015/05/02,04:50,0.554,0.336,0.588,0.549,0.478,0.256,0.230,north-northwest,8.9,No
2015/05/02,05:00,0.547,0.337,0.593,0.544,0.484,0.256,0.232,north-northwest,9.2,No
2015/05/02,05:10,0.553,0.337,0.588,0.549,0.477,0.257,0.230,north-northwest,9.3,No
2015/05/02,05:20,0.550,0.336,0.594,0.546,0.485,0.257,0.231,north-northwest,9.8,No
2015/05/02,05:30,0.551,0.338,0.589,0.549,0.478,0.256,0.233,north-northwest,8.7,No
2015/05/02,05:40,0.550,0.335,0.593,0.542,0.481,0.256,0.230,north,8.2,No
2015/05/02,05:50,0.552,0.339,0.590,0.549,0.478,0.256,0.231,north-northwest,8.4,No
2015/05/02,06:00,0.549,0.336,0.591,0.544,0.482,0.257,0.231,north-northwest,7.9,No
2015/05/02,06:10,0.552,0.338,0.590,0.550,0.477,0.255,0.231,north-northwest,7.6,No
2015/05/02,06:20,0.549,0.335,0.591,0.544,0.484,0.256,0.231,north,6.4,No
2015/05/02,06:30,0.551,0.340,0.589,0.548,0.476,0.256,0.232,north,5.7,No
2015/05/02,06:40,0.550,0.335,0.592,0.545,0.483,0.257,0.233,north,5.0,No
2015/05/02,06:50,0.555,0.338,0.588,0.549,0.478,0.256,0.230,north,5.6,No
2015/05/02,07:00,0.548,0.336,0.592,0.542,0.482,0.255,0.232,north,5.0,No
2015/05/02,07:10,0.555,0.336,0.585,0.550,0.478,0.257,0.230,north,5.3,No
2015/05/02,07:20,0.548,0.337,0.587,0.544,0.480,0.255,0.230,north,6.8,No
2015/05/02,07:30,0.552,0.334,0.590,0.542,0.481,0.256,0.231,north,4.9,No
2015/05/02,07:40,0.551,0.337,0.585,0.548,0.477,0.257,0.231,north,4.8,No
2015/05/02,07:50,0.548,0.337,0.591,0.544,0.483,0.255,0.230,north,5.3,No
2015/05/02,08:00,0.553,0.334,0.590,0.538,0.475,0.257,0.229,north,4.9,No
2015/05/02,08:10,0.548,0.336,0.588,0.540,0.481,0.256,0.230,north,5.4,No
2015/05/02,08:20,0.553,0.339,0.593,0.549,0.480,0.255,0.231,north-northeast,6.0,No
2015/05/02,08:30,0.552,0.336,0.588,0.544,0.474,0.255,0.231,north-northeast,6.8,No
2015/05/02,08:40,0.547,0.334,0.593,0.541,0.478,0.255,0.229,north,6.0,No
2015/05/02,08:50,0.553,0.338,0.592,0.543,0.483,0.254,0.231,north,5.2,No
2015/05/02,09:00,0.547,0.336,0.588,0.547,0.476,0.256,0.231,north,4.4,No
2015/05/02,09:10,0.549,0.333,0.593,0.546,0.475,0.257,0.230,north,3.9,No
2015/05/02,09:20,0.553,0.336,0.589,0.545,0.482,0.254,0.229,north,4.6,No
2015/05/02,09:30,0.547,0.337,0.588,0.541,0.480,0.255,0.231,north-northeast,6.3,No
2015/05/02,09:40,0.552,0.335,0.595,0.539,0.477,0.256,0.232,north-northeast,7.3,No
2015/05/02,09:50,0.553,0.335,0.588,0.547,0.478,0.257,0.230,north-northeast,7.4,No
2015/05/02,10:00,0.545,0.338,0.588,0.552,0.483,0.256,0.230,north-northeast,8.1,No
2015/05/02,10:10,0.553,0.336,0.595,0.545,0.480,0.255,0.233,north-northeast,8.1,No
2015/05/02,10:20,0.553,0.336,0.588,0.544,0.476,0.255,0.231,north-northeast,6.7,No
2015/05/02,10:30,0.547,0.338,0.583,0.541,0.480,0.257,0.230,north,6.2,No
2015/05/02,10:40,0.554,0.337,0.583,0.551,0.482,0.256,0.230,north,6.7,No
2015/05/02,10:50,0.552,0.334,0.592,0.549,0.478,0.255,0.232,north-northeast,6.7,No
2015/05/02,11:00,0.547,0.338,0.592,0.545,0.475,0.257,0.231,north,6.3,No
2015/05/02,11:10,0.552,0.338,0.587,0.542,0.480,0.256,0.231,north-northeast,5.9,No
2015/05/02,11:20,0.554,0.334,0.585,0.543,0.484,0.256,0.231,north-northeast,5.9,No
2015/05/02,11:30,0.546,0.335,0.583,0.551,0.478,0.256,0.232,north,5.7,No
2015/05/02,11:40,0.549,0.337,0.584,0.548,0.476,0.255,0.231,north-northeast,5.1,No
2015/05/02,11:50,0.553,0.337,0.591,0.546,0.481,0.256,0.231,north-northeast,5.7,No
2015/05/02,12:00,0.548,0.335,0.591,0.544,0.485,0.256,0.233,north-northeast,4.6,No
2015/05/02,12:10,0.553,0.338,0.591,0.542,0.481,0.256,0.232,north-northeast,3.3,No
2015/05/02,12:20,0.555,0.336,0.588,0.544,0.477,0.255,0.231,northeast,4.8,No
2015/05/02,12:30,0.549,0.335,0.585,0.550,0.478,0.255,0.233,northeast,3.8,No
2015/05/02,12:40,0.555,0.338,0.586,0.549,0.486,0.256,0.232,northeast,2.5,No
2015/05/02,12:50,0.551,0.338,0.592,0.543,0.482,0.256,0.230,northeast,5.2,No
2015/05/02,13:00,0.550,0.336,0.594,0.543,0.477,0.257,0.233,northeast,3.3,No
2015/05/02,13:10,0.555,0.340,0.591,0.546,0.476,0.256,0.232,northeast,3.7,No
2015/05/02,13:20,0.549,0.338,0.587,0.552,0.485,0.257,0.231,northeast,4.1,No
2015/05/02,13:30,0.554,0.336,0.585,0.549,0.482,0.256,0.233,east-northeast,3.3,No
2015/05/02,13:40,0.553,0.339,0.595,0.545,0.476,0.256,0.232,east-northeast,2.6,No
2015/05/02,13:50,0.551,0.338,0.593,0.548,0.481,0.256,0.231,east-northeast,2.5,No
2015/05/02,14:00,0.554,0.335,0.590,0.553,0.484,0.257,0.232,northeast,1.8,No
2015/05/02,14:10,0.548,0.339,0.588,0.549,0.480,0.257,0.230,northeast,1.6,No
2015/05/02,14:20,0.553,0.337,0.585,0.545,0.475,0.257,0.230,east-northeast,1.1,No
2015/05/02,14:30,0.552,0.336,0.592,0.546,0.476,0.257,0.232,east-northeast,1.4,No
2015/05/02,14:40,0.549,0.339,0.593,0.554,0.483,0.256,0.231,east-northeast,1.8,No
2015/05/02,14:50,0.555,0.337,0.588,0.549,0.482,0.256,0.232,east-northeast,0.7,No
2015/05/02,15:00,0.551,0.338,0.585,0.547,0.479,0.257,0.233,north-northeast,0.9,No
2015/05/02,15:10,0.552,0.340,0.596,0.553,0.474,0.256,0.231,north,1.4,No
2015/05/02,15:20,0.555,0.336,0.595,0.548,0.482,0.256,0.233,north-northwest,0.8,No
2015/05/02,15:30,0.551,0.338,0.588,0.550,0.481,0.257,0.231,northwest,0.7,No
2015/05/02,15:40,0.556,0.337,0.594,0.549,0.479,0.256,0.233,-,CALM,No
2015/05/02,15:50,0.550,0.339,0.595,0.550,0.477,0.256,0.231,-,CALM,No
2015/05/02,16:00,0.555,0.338,0.591,0.552,0.478,0.257,0.233,east,1.1,No
2015/05/02,16:10,0.553,0.337,0.600,0.550,0.486,0.256,0.233,east-southeast,1.3,No
2015/05/02,16:20,0.552,0.339,0.592,0.551,0.479,0.256,0.231,south-southeast,1.1,No
2015/05/02,16:30,0.553,0.338,0.597,0.548,0.478,0.256,0.232,south,2.5,No
2015/05/02,16:40,0.550,0.340,0.594,0.549,0.486,0.256,0.232,south,2.9,No
2015/05/02,16:50,0.556,0.339,0.594,0.550,0.481,0.255,0.232,south,3.2,No
2015/05/02,17:00,0.551,0.341,0.595,0.549,0.480,0.257,0.233,south,2.8,No
2015/05/02,17:10,0.555,0.338,0.593,0.551,0.485,0.258,0.233,south,2.5,No
2015/05/02,17:20,0.549,0.339,0.594,0.550,0.478,0.258,0.232,south,2.4,No
2015/05/02,17:30,0.554,0.338,0.591,0.551,0.485,0.258,0.232,south,2.6,No
2015/05/02,17:40,0.551,0.337,0.592,0.549,0.482,0.257,0.232,south,2.2,No
2015/05/02,17:50,0.556,0.338,0.594,0.551,0.482,0.257,0.231,south,2.2,No
2015/05/02,18:00,0.553,0.337,0.594,0.547,0.483,0.256,0.233,south,2.1,No
2015/05/02,18:10,0.554,0.338,0.591,0.550,0.483,0.257,0.232,south,1.6,No
2015/05/02,18:20,0.550,0.336,0.594,0.549,0.485,0.258,0.233,south,1.8,No
2015/05/02,18:30,0.554,0.340,0.591,0.550,0.483,0.256,0.232,south,2.1,No
2015/05/02,18:40,0.553,0.336,0.593,0.547,0.481,0.257,0.231,south,1.9,No
2015/05/02,18:50,0.554,0.339,0.594,0.553,0.485,0.257,0.231,south,2.5,No
2015/05/02,19:00,0.552,0.336,0.593,0.547,0.482,0.257,0.232,south,3.5,No
2015/05/02,19:10,0.556,0.338,0.594,0.552,0.483,0.258,0.232,south,4.4,No
2015/05/02,19:20,0.551,0.337,0.591,0.550,0.480,0.257,0.233,south,4.3,No
2015/05/02,19:30,0.556,0.338,0.596,0.550,0.483,0.257,0.231,south,4.7,No
2015/05/02,19:40,0.551,0.338,0.591,0.550,0.480,0.256,0.233,south,4.7,No
2015/05/02,19:50,0.554,0.336,0.596,0.548,0.480,0.257,0.233,south,4.5,No
2015/05/02,20:00,0.551,0.338,0.591,0.552,0.481,0.256,0.233,south,4.8,No
2015/05/02,20:10,0.552,0.338,0.594,0.550,0.480,0.256,0.232,south,4.4,No
2015/05/02,20:20,0.552,0.337,0.591,0.550,0.482,0.257,0.233,south,4.2,No
2015/05/02,20:30,0.553,0.340,0.591,0.550,0.479,0.257,0.232,south,4.1,No
2015/05/02,20:40,0.554,0.337,0.594,0.549,0.482,0.257,0.232,south,3.9,No
2015/05/02,20:50,0.551,0.338,0.589,0.551,0.479,0.255,0.231,south,3.3,No
2015/05/02,21:00,0.554,0.338,0.595,0.548,0.480,0.258,0.231,south,2.8,No
2015/05/02,21:10,0.550,0.337,0.590,0.552,0.481,0.257,0.232,south-southwest,2.9,No
2015/05/02,21:20,0.556,0.340,0.595,0.548,0.479,0.258,0.234,south,3.6,No
2015/05/02,21:30,0.550,0.336,0.593,0.551,0.480,0.257,0.231,south,3.6,No
2015/05/02,21:40,0.554,0.337,0.592,0.549,0.479,0.258,0.233,south,3.9,No
2015/05/02,21:50,0.553,0.340,0.593,0.549,0.480,0.256,0.231,south,3.9,No
2015/05/02,22:00,0.553,0.338,0.592,0.549,0.481,0.256,0.232,south-southwest,3.4,No
2015/05/02,22:10,0.552,0.340,0.595,0.548,0.478,0.257,0.232,south,3.4,No
2015/05/02,22:20,0.551,0.339,0.591,0.550,0.480,0.256,0.232,south,3.3,No
2015/05/02,22:30,0.555,0.337,0.594,0.548,0.480,0.257,0.232,south-southwest,3.4,No
2015/05/02,22:40,0.550,0.340,0.594,0.549,0.480,0.257,0.232,south,4.2,No
2015/05/02,22:50,0.555,0.341,0.593,0.553,0.480,0.256,0.233,south,4.0,No
2015/05/02,23:00,0.551,0.338,0.596,0.547,0.480,0.257,0.232,south,3.8,No
2015/05/02,23:10,0.553,0.339,0.592,0.552,0.480,0.257,0.232,south,3.7,No
2015/05/02,23:20,0.554,0.337,0.595,0.551,0.478,0.257,0.233,south,4.2,No
2015/05/02,23:30,0.550,0.340,0.591,0.547,0.481,0.257,0.233,south,3.9,No
2015/05/02,23:40,0.556,0.339,0.593,0.553,0.480,0.257,0.234,south,3.6,No
2015/05/02,23:50,0.551,0.337,0.598,0.550,0.481,0.259,0.233,south,4.0,No
